Location: Newark
(34.9500°N, 139.9667°E)
Time: 17:01:41
(UTC+00:00)

Vanguard 2 Rocket - Pass Details

Date: 14 December 2019
Orbit: 554 x 3326 km, 32.9° (Epoch: 26 January)

Event Time Altitude Azimuth Distance (km) Brightness Sun altitude
Rises 10:06:05 0° 269° (W) 6,468 12.4 -31.2°
Reaches altitude 10° 10:11:00 10° 269° (W) 5,054 11.5 -32.2°
Maximum altitude 10:24:13 79° 186° (S) 1,551 7.8 -34.9°
Enters shadow 10:24:41 77° 153° (SSE) 1,528 7.7 -35.0°
Drops below altitude 10° 10:31:22 10° 100° (E) 2,871 - -36.4°
Sets 10:33:27 0° 99° (E) 3,588 - -36.8°
